TURKSAT 3A

Last updated on March 8, 2021, 6:42 a.m. UTC

1 33056U 08030B   21066.83868914  .00000126  00000-0  00000-0 0  9999
2 33056   0.0531  90.8121 0004055 279.2894 139.5392  1.00273022 33032
UTC
Height (km)
Latitude
Longitude
Inclination
Orbital Period
UTC large
Height (km)
Speed (km/s)
/
Latitude / Longitude
Inclination (degrees)
Orbital Period (minutes)
Azimuth
Elevation
Range (km)
Doppler Factor
iOS Compass Heading
iOS Angle

Next 30 passes for location: Hong Kong

Rise time Rise Azimuth (degrees) Set time Set Azimuth (degrees) Duration Max altitude (degrees)

No matching passes for this satellites